This is the latest recevied weather packets stored in our database for station/object IZ1MEU-13. If no packets are shown the sender has not sent any weather packets the latest 10 day(s).
| Time | Temp. | Humidity | Pressure | Rain* | Wind** | Luminosity | Snow |
|---|---|---|---|---|---|---|---|
| 1778172150 | 17.78° C | 45% | 1014.8 hPa | - | - | - | - |
| 1778170945 | 18.89° C | 43% | 1014.8 hPa | - | - | - | - |
| 1778169741 | 19.44° C | 45% | 1014.6 hPa | - | - | - | - |
| 1778168537 | 17.78° C | 48% | 1014.7 hPa | - | - | - | - |
| 1778167333 | 18.33° C | 46% | 1014.5 hPa | - | - | - | - |
| 1778166129 | 20° C | 45% | 1014.5 hPa | - | - | - | - |
| 1778164924 | 17.78° C | 48% | 1014.6 hPa | - | - | - | - |
| 1778163720 | 17.78° C | 47% | 1014.7 hPa | - | - | - | - |
| 1778162517 | 17.78° C | 46% | 1015 hPa | - | - | - | - |
| 1778161313 | 17.78° C | 48% | 1015.1 hPa | - | - | - | - |
| 1778160109 | 18.33° C | 46% | 1015.3 hPa | - | - | - | - |
| 1778158905 | 17.78° C | 49% | 1015.3 hPa | - | - | - | - |
| 1778157702 | 16.67° C | 51% | 1015.6 hPa | - | - | - | - |
| 1778156498 | 17.22° C | 48% | 1015.6 hPa | - | - | - | - |
| 1778155294 | 16.67° C | 52% | 1015.8 hPa | - | - | - | - |
| 1778154090 | 16.67° C | 51% | 1015.9 hPa | - | - | - | - |
| 1778152886 | 16.67° C | 52% | 1016 hPa | - | - | - | - |
| 1778151683 | 15° C | 51% | 1016.3 hPa | - | - | - | - |
| 1778150479 | 16.11° C | 53% | 1016.4 hPa | - | - | - | - |
| 1778149275 | 16.11° C | 52% | 1016.5 hPa | - | - | - | - |
| 1778148071 | 15.56° C | 57% | 1016.5 hPa | - | - | - | - |
| 1778146868 | 14.44° C | 58% | 1016.6 hPa | - | - | - | - |
| 1778145664 | 14.44° C | 56% | 1016.5 hPa | - | - | - | - |
| 1778144460 | 13.89° C | 60% | 1016.6 hPa | - | - | - | - |
| 1778143256 | 13.89° C | 60% | 1016.3 hPa | - | - | - | - |
* Rain since midnight (hover to see other rain measurements)
** Current wind speed in m/s (hover to see current wind gust speed)